Hovedside
METAR-TAF:

METAR-TAF

Lufthavner :

Torsby, Sverige

breddegrad: 60-09-17N, lengdegrad: 12-59-40E, høyde over havet: 120 m

Gjeldene værobservasjon

Denne rapporten ble laget for 35 minutter siden, klokken 09:50 UTC
Vind 10 kt fra Sørvest, skiftende mellom Sør og Vest-nordvest
Temperatur 18°C
Luftfuktighet 45%
Trykk 992 hPa
Sikt 10 km eller mer

METAR: ESST 250950Z AUTO 22010KT 170V300 9999 FEW055/// 18/06 Q0992

Tid: 12:25 (10:25 UTC)


TAF: fraværende

Værobservasjoner og værvarsel for over 4000 flyplasser (METAR- og TAF-rapporter).

Tilgjengelige stasjoner er representert av de røde og gule prikkene på kartet.

Hold musepekeren over prikken for å se navnet på stasjonen.

Klikk så for å se værobservasjoner og -varsler.

For å forandre kartet kan du klikke på den grønne knappen med svart kryss for å zoome inn, på den grønne knappen med strek for å zoome ut, eller på de grønne pilene for å se tilstøtende kart.


METAR-TAF: